GW5612 Weather Reports


time (UTC)temp
C
wind
direction
speed
KPH
gust
KPH
rain 1hr
cm
rain 24hr
cm
rain mn
cm
humidity
%
barometer
mb
20260506212007 19 122 0.0 11.3 0.00 0.00 0.00 56 1007.2
20260506211510 18 107 0.0 11.3 0.00 0.00 0.00 56 1007.2
20260506211004 18 120 0.0 8.0 0.00 0.00 0.00 56 1007.2
20260506210507 18 105 0.0 8.0 0.00 0.00 0.00 55 1007.2
20260506210022 18 113 0.0 4.8 0.00 0.00 0.00 57 1007.2
20260506205504 18 117 0.0 4.8 0.00 0.00 0.00 57 1007.3
20260506205003 18 105 0.0 8.0 0.00 0.00 0.00 58 1007.2
20260506204508 19 110 0.0 16.1 0.00 0.00 0.00 60 1007.2
20260506204004 19 134 1.6 16.1 0.00 0.00 0.00 60 1007.2
20260506203509 19 108 0.0 16.1 0.00 0.00 0.00 59 1007.1
20260506203011 19 137 0.0 16.1 0.00 0.00 0.00 56 1007.1
20260506202504 18 245 1.6 14.5 0.00 0.00 0.00 54 1007.0
20260506202007 18 126 0.0 14.5 0.00 0.00 0.00 51 1007.1
20260506201516 18 115 0.0 14.5 0.00 0.00 0.00 51 1007.1
20260506201004 18 105 0.0 14.5 0.00 0.00 0.00 50 1007.1
20260506200504 18 155 0.0 12.9 0.00 0.00 0.00 52 1007.3
20260506200013 18 122 0.0 17.7 0.00 0.00 0.00 54 1007.3
20260506195504 18 135 1.6 17.7 0.00 0.00 0.00 53 1007.3
20260506195005 18 131 1.6 16.1 0.00 0.00 0.00 49 1007.4
20260506194511 18 80 0.0 11.3 0.00 0.00 0.00 46 1007.3
20260506194007 18 132 0.0 3.2 0.00 0.00 0.00 46 1007.5
20260506193504 17 120 0.0 9.7 0.00 0.00 0.00 41 1007.5
20260506193021 17 139 0.0 9.7 0.00 0.00 0.00 39 1007.5
20260506192504 17 123 0.0 6.4 0.00 0.00 0.00 38 1007.6
20260506192006 17 104 0.0 8.0 0.00 0.00 0.00 33 1007.6
20260506191514 17 96 0.0 16.1 0.00 0.00 0.00 32 1007.8
20260506191003 17 102 0.0 16.1 0.00 0.00 0.00 25 1007.8
20260506190509 17 136 0.0 16.1 0.00 0.00 0.00 20 1007.8
20260506190013 16 91 0.0 16.1 0.00 0.00 0.00 20 1007.8
20260506185507 16 117 0.0 17.7 0.00 0.00 0.00 18 1007.8
20260506185004 16 96 0.0 17.7 0.00 0.00 0.00 22 1008.0
20260506184515 17 60 1.6 17.7 0.00 0.00 0.00 25 1008.1
20260506184005 17 121 0.0 16.1 0.00 0.00 0.00 29 1008.0
20260506183504 17 103 3.2 16.1 0.00 0.00 0.00 30 1008.1
20260506183013 17 90 0.0 17.7 0.00 0.00 0.00 32 1008.0
20260506182508 17 101 0.0 17.7 0.00 0.00 0.00 30 1007.9
20260506182006 17 113 0.0 9.7 0.00 0.00 0.00 29 1007.9
20260506181511 16 91 0.0 16.1 0.00 0.00 0.00 30 1008.0
20260506181006 16 127 0.0 20.9 0.00 0.00 0.00 29 1008.1
20260506180504 16 114 0.0 20.9 0.00 0.00 0.00 31 1008.1
20260506180003 17 120 0.0 20.9 0.00 0.00 0.00 32 1008.2
20260506175502 17 72 3.2 20.9 0.00 0.00 0.00 31 1008.3
20260506175007 17 165 1.6 17.7 0.00 0.00 0.00 30 1008.2
20260506174503 17 105 0.0 16.1 0.00 0.00 0.00 29 1008.3
20260506174003 16 37 0.0 20.9 0.00 0.00 0.00 24 1008.3
20260506173506 16 112 0.0 20.9 0.00 0.00 0.00 23 1008.2
20260506173004 16 119 0.0 12.9 0.00 0.00 0.00 21 1008.3
20260506172504 16 117 0.0 19.3 0.00 0.00 0.00 21 1008.5
20260506172004 16 121 0.0 19.3 0.00 0.00 0.00 22 1008.6
20260506171507 17 113 0.0 12.9 0.00 0.00 0.00 19 1008.6
20260506171008 17 129 0.0 11.3 0.00 0.00 0.00 20 1008.5
20260506170505 17 79 0.0 25.7 0.00 0.00 0.00 22 1008.5
20260506170008 17 137 0.0 25.7 0.00 0.00 0.00 23 1008.5
20260506165504 17 110 1.6 29.0 0.00 0.00 0.00 16 1008.5
20260506165005 17 123 1.6 29.0 0.00 0.00 0.00 16 1008.3
20260506164513 17 127 4.8 25.7 0.00 0.00 0.00 10 1008.6
20260506164003 17 103 3.2 24.1 0.00 0.00 0.00 8 1008.4
20260506163503 16 146 0.0 4.8 0.00 0.00 0.00 4 1008.6
20260506163009 16 117 0.0 4.8 0.00 0.00 0.00 3 1008.4
20260506162508 16 122 0.0 14.5 0.00 0.00 0.00 4 1008.5
20260506162003 16 120 0.0 14.5 0.00 0.00 0.00 5 1008.9
20260506161505 16 122 0.0 4.8 0.00 0.00 0.00 6 1009.2
20260506161003 16 126 0.0 3.2 0.00 0.00 0.00 7 1009.5
20260506160504 16 124 0.0 11.3 0.00 0.00 0.00 8 1009.5
20260506160009 16 122 0.0 11.3 0.00 0.00 0.00 9 1009.7
20260506155503 16 74 0.0 1.6 0.00 0.00 0.00 11 1009.7
20260506155003 16 122 0.0 1.6 0.00 0.00 0.00 14 1009.9
20260506154510 16 96 0.0 0.0 0.00 0.00 0.00 16 1009.8
20260506154004 16 118 0.0 0.0 0.00 0.00 0.00 20 1009.7
20260506153504 16 98 0.0 3.2 0.00 0.00 0.00 22 1009.6
20260506153003 17 120 0.0 3.2 0.00 0.00 0.00 27 1009.6
20260506152503 17 107 0.0 0.0 0.00 0.00 0.00 27 1009.8
20260506152003 17 105 0.0 4.8 0.00 0.00 0.00 29 1009.8
20260506151504 17 91 0.0 8.0 0.00 0.00 0.00 30 1009.7
20260506151003 17 120 0.0 8.0 0.00 0.00 0.00 30 1009.7
20260506150504 17 127 0.0 0.0 0.00 0.00 0.00 32 1009.7
20260506150005 17 105 0.0 0.0 0.00 0.00 0.00 36 1009.5
20260506145505 17 114 0.0 3.2 0.00 0.00 0.00 39 1009.4
20260506145008 17 123 0.0 3.2 0.00 0.00 0.00 41 1009.4
20260506144521 17 96 0.0 0.0 0.00 0.00 0.00 45 1009.5
20260506144008 17 115 0.0 8.0 0.00 0.00 0.00 51 1009.7
20260506143505 17 115 0.0 16.1 0.00 0.00 0.00 59 1009.7
20260506143013 18 115 0.0 16.1 0.00 0.00 0.00 62 1009.6
20260506142505 18 125 0.0 8.0 0.00 0.00 0.00 63 1009.6
20260506142004 18 127 0.0 22.5 0.00 0.00 0.00 66 1009.6
20260506141511 18 115 6.4 22.5 0.00 0.00 0.00 68 1009.7
20260506141003 19 132 1.6 22.5 0.00 0.00 0.00 68 1009.5
20260506140507 20 97 1.6 17.7 0.00 0.00 0.00 68 1009.4
20260506140004 20 128 3.2 20.9 0.00 0.00 0.00 68 1009.3
20260506135503 20 105 0.0 20.9 0.00 0.00 0.00 67 1009.2
20260506135008 20 83 0.0 12.9 0.00 0.00 0.00 68 1009.2
20260506134508 20 107 0.0 12.9 0.00 0.00 0.00 68 1009.3
20260506134005 19 70 0.0 12.9 0.00 0.00 0.00 68 1009.3
20260506133505 19 109 1.6 11.3 0.00 0.00 0.00 68 1009.4
20260506133011 18 129 0.0 24.1 0.00 0.00 0.00 68 1009.4
20260506132506 18 111 3.2 24.1 0.00 0.00 0.00 68 1009.2
20260506132003 18 124 0.0 16.1 0.00 0.00 0.00 68 1009.4
20260506131518 18 77 1.6 14.5 0.00 0.00 0.00 68 1009.4
20260506131004 19 117 0.0 17.7 0.00 0.00 0.00 68 1009.5
20260506130509 19 102 1.6 17.7 0.00 0.00 0.00 68 1009.6
20260506130004 19 131 0.0 14.5 0.00 0.00 0.00 68 1009.6
20260506125505 19 70 0.0 14.5 0.00 0.00 0.00 68 1009.5
20260506125003 19 126 0.0 12.9 0.00 0.00 0.00 68 1009.5
20260506124505 19 141 0.0 12.9 0.00 0.00 0.00 68 1009.5
20260506124004 18 98 0.0 24.1 0.00 0.00 0.00 68 1009.4
20260506123504 18 130 3.2 24.1 0.00 0.00 0.00 68 1009.4
20260506123007 18 134 0.0 14.5 0.00 0.00 0.00 68 1009.5
20260506122505 18 137 0.0 16.1 0.00 0.00 0.00 67 1009.3
20260506122010 18 120 0.0 16.1 0.00 0.00 0.00 67 1009.4
20260506121515 18 131 0.0 11.3 0.00 0.00 0.00 67 1009.4
20260506121008 18 133 0.0 11.3 0.00 0.00 0.00 67 1009.5
20260506120506 18 81 0.0 9.7 0.00 0.00 0.00 67 1009.5
20260506120034 18 68 0.0 9.7 0.00 0.00 0.00 67 1009.5
20260506115505 18 126 0.0 12.9 0.00 0.00 0.00 67 1009.4
20260506115005 18 101 0.0 14.5 0.00 0.00 0.00 67 1009.5
20260506114520 18 81 0.0 14.5 0.00 0.00 0.00 67 1009.5
20260506114005 18 117 0.0 8.0 0.00 0.00 0.00 67 1009.5
20260506113508 18 109 0.0 9.7 0.00 0.00 0.00 67 1009.4
20260506113003 18 101 0.0 9.7 0.00 0.00 0.00 67 1009.4
20260506112504 18 82 0.0 3.2 0.00 0.00 0.00 67 1009.4
20260506112004 18 105 0.0 12.9 0.00 0.00 0.00 66 1009.5
20260506111509 18 38 0.0 12.9 0.00 0.00 0.00 67 1009.6
20260506111006 18 135 0.0 8.0 0.00 0.00 0.00 66 1009.5
20260506110504 18 123 0.0 8.0 0.00 0.00 0.00 66 1009.4
20260506110016 18 127 0.0 6.4 0.00 0.00 0.00 66 1009.3
20260506105506 18 95 0.0 12.9 0.00 0.00 0.00 66 1009.4
20260506105007 17 114 0.0 19.3 0.00 0.00 0.00 66 1009.4
20260506104531 17 110 1.6 19.3 0.00 0.00 0.00 66 1009.3
20260506104011 17 94 0.0 9.7 0.00 0.00 0.00 65 1009.3
20260506103508 17 28 0.0 9.7 0.00 0.00 0.00 65 1009.4
20260506103038 17 116 0.0 9.7 0.00 0.00 0.00 65 1009.4
20260506102505 17 132 0.0 20.9 0.00 0.00 0.00 65 1009.3
20260506102003 17 143 0.0 20.9 0.00 0.00 0.00 65 1009.3
20260506101508 17 148 0.0 4.8 0.00 0.00 0.00 64 1009.2
20260506101004 17 134 0.0 4.8 0.00 0.00 0.00 65 1009.2
20260506100506 17 83 0.0 3.2 0.00 0.00 0.00 65 1009.3
20260506100011 17 107 0.0 4.8 0.00 0.00 0.00 65 1009.4
20260506095506 17 136 0.0 4.8 0.00 0.00 0.00 65 1009.4
20260506095008 17 122 0.0 1.6 0.00 0.00 0.00 65 1009.4
20260506094520 18 127 0.0 9.7 0.00 0.00 0.00 65 1009.3
20260506094007 18 101 0.0 9.7 0.00 0.00 0.00 65 1009.3
20260506093502 18 103 0.0 3.2 0.00 0.00 0.00 65 1009.3
20260506093003 17 105 0.0 3.2 0.00 0.00 0.00 65 1009.2
20260506092503 18 155 0.0 6.4 0.00 0.00 0.00 65 1009.2
20260506092003 18 175 0.0 6.4 0.00 0.00 0.00 65 1009.3
20260506091508 18 127 0.0 6.4 0.00 0.00 0.00 65 1009.3
20260506091003 18 87 0.0 11.3 0.00 0.00 0.00 65 1009.2
20260506090502 18 91 0.0 11.3 0.00 0.00 0.00 65 1009.3
20260506090007 18 117 0.0 6.4 0.00 0.00 0.00 64 1009.4
20260506085503 17 114 0.0 4.8 0.00 0.00 0.00 64 1009.4
20260506085003 18 113 0.0 0.0 0.00 0.00 0.00 64 1009.4
20260506084528 18 199 0.0 0.0 0.00 0.00 0.00 64 1009.4
20260506084010 18 132 0.0 8.0 0.00 0.00 0.00 65 1009.4
20260506083508 18 124 0.0 8.0 0.00 0.00 0.00 65 1009.5
20260506083021 18 129 0.0 0.0 0.00 0.00 0.00 65 1009.5
20260506082502 18 108 0.0 12.9 0.00 0.00 0.00 66 1009.5
20260506082002 18 127 0.0 12.9 0.00 0.00 0.00 66 1009.5
20260506081503 18 107 0.0 4.8 0.00 0.00 0.00 66 1009.5
20260506081008 18 127 0.0 4.8 0.00 0.00 0.00 66 1009.5
20260506080504 18 150 0.0 8.0 0.00 0.00 0.00 66 1009.4
20260506073504 18 131 1.6 12.9 0.00 0.00 0.00 67 1009.4
20260506073019 18 111 0.0 14.5 0.00 0.00 0.00 67 1009.5
20260506072508 18 56 0.0 14.5 0.00 0.00 0.00 67 1009.6
20260506072010 18 124 0.0 12.9 0.00 0.00 0.00 68 1009.6
20260506071521 19 118 0.0 22.5 0.00 0.00 0.00 67 1009.6
20260506071003 19 131 3.2 22.5 0.00 0.00 0.00 67 1009.6
20260506070503 19 120 0.0 16.1 0.00 0.00 0.00 67 1009.6
20260506062507 19 84 0.0 12.9 0.00 0.00 0.00 67 1010.0
20260506062007 19 89 0.0 8.0 0.00 0.00 0.00 67 1009.9
20260506061516 19 122 0.0 12.9 0.00 0.00 0.00 67 1010.0
20260506061009 19 78 0.0 12.9 0.00 0.00 0.00 67 1009.9
20260506060510 19 138 1.6 12.9 0.00 0.00 0.00 66 1009.9
20260506051006 20 120 0.0 14.5 0.00 0.00 0.00 65 1010.4
20260506050508 19 123 0.0 6.4 0.00 0.00 0.00 65 1010.4
20260506045010 20 103 0.0 16.1 0.00 0.00 0.00 64 1010.4
20260506044523 20 115 1.6 16.1 0.00 0.00 0.00 64 1010.5
20260506044007 20 98 0.0 8.0 0.00 0.00 0.00 64 1010.6
20260506043505 20 124 0.0 12.9 0.00 0.00 0.00 64 1010.4
20260506043007 20 134 0.0 20.9 0.00 0.00 0.00 63 1010.5
20260506042504 20 143 0.0 20.9 0.00 0.00 0.00 63 1010.4
20260506042006 20 123 0.0 16.1 0.00 0.00 0.00 63 1010.4
20260506041511 20 114 0.0 16.1 0.00 0.00 0.00 63 1010.3
20260506041006 20 117 0.0 4.8 0.00 0.00 0.00 63 1010.4
20260506040505 20 122 0.0 6.4 0.00 0.00 0.00 64 1010.4
20260506040018 20 110 0.0 6.4 0.00 0.00 0.00 63 1010.4
20260506035506 20 120 0.0 8.0 0.00 0.00 0.00 63 1010.4
20260506035010 20 108 0.0 8.0 0.00 0.00 0.00 63 1010.3
20260506034522 20 75 0.0 8.0 0.00 0.00 0.00 63 1010.4
20260506034010 20 128 0.0 4.8 0.00 0.00 0.00 63 1010.3
20260506033507 20 136 0.0 12.9 0.00 0.00 0.00 63 1010.3
20260506033024 20 174 0.0 12.9 0.00 0.00 0.00 63 1010.2
20260506032510 20 136 0.0 6.4 0.00 0.00 0.00 63 1010.2
20260506032006 20 127 0.0 6.4 0.00 0.00 0.00 63 1010.2
20260506031509 20 75 0.0 3.2 0.00 0.00 0.00 62 1010.2
20260506031003 20 112 0.0 3.2 0.00 0.00 0.00 61 1010.2
20260506030504 20 122 0.0 4.8 0.00 0.00 0.00 61 1010.2
20260506030014 20 114 0.0 8.0 0.00 0.00 0.00 61 1010.3
20260506025507 20 20 0.0 9.7 0.00 0.00 0.00 60 1010.2
20260506025008 20 195 0.0 9.7 0.00 0.00 0.00 60 1010.3
20260506024516 20 129 0.0 9.7 0.00 0.00 0.00 59 1010.3
20260506024008 21 89 0.0 11.3 0.00 0.00 0.00 59 1010.4
20260506023507 21 114 0.0 11.3 0.00 0.00 0.00 58 1010.3
20260506023043 21 79 0.0 9.7 0.00 0.00 0.00 57 1010.4
20260506022509 21 65 0.0 9.7 0.00 0.00 0.00 56 1010.3
20260506022012 21 83 0.0 16.1 0.00 0.00 0.00 55 1010.4
20260506021533 21 127 1.6 16.1 0.00 0.00 0.00 55 1010.3
20260506021011 21 98 0.0 4.8 0.00 0.00 0.00 54 1010.3
20260506020504 21 128 0.0 1.6 0.00 0.00 0.00 53 1010.2
20260506020013 21 115 0.0 1.6 0.00 0.00 0.00 51 1010.3
20260506015504 22 64 0.0 1.6 0.00 0.00 0.00 51 1010.2
20260506015004 22 122 0.0 8.0 0.00 0.00 0.00 49 1010.2
20260506014518 22 77 0.0 14.5 0.00 0.00 0.00 48 1010.2
20260506014004 22 115 0.0 14.5 0.00 0.00 0.00 48 1010.1
20260506013508 22 101 0.0 16.1 0.00 0.00 0.00 48 1010.0
20260506013027 22 97 1.6 16.1 0.00 0.00 0.00 47 1009.9
20260506012509 22 132 0.0 24.1 0.00 0.00 0.00 47 1010.0
20260506012009 22 64 1.6 24.1 0.00 0.00 0.00 46 1009.8
20260506011524 22 108 0.0 17.7 0.00 0.00 0.00 46 1009.8
20260506011009 23 119 0.0 14.5 0.00 0.00 0.00 46 1009.8
20260506010509 23 120 0.0 11.3 0.00 0.00 0.00 46 1009.7
20260506010024 23 94 0.0 11.3 0.00 0.00 0.00 45 1009.7
20260506005508 23 124 0.0 25.7 0.00 0.00 0.00 44 1009.6
20260506005004 23 82 0.0 25.7 0.00 0.00 0.00 44 1009.6
20260506004513 23 139 0.0 20.9 0.00 0.00 0.00 45 1009.5
20260506004004 23 108 1.6 20.9 0.00 0.00 0.00 44 1009.4
20260506003507 23 67 1.6 17.7 0.00 0.00 0.00 44 1009.4
20260506003018 23 100 1.6 12.9 0.00 0.00 0.00 45 1009.3
20260506002507 23 129 0.0 11.3 0.00 0.00 0.00 45 1009.3
20260506002009 23 127 0.0 11.3 0.00 0.00 0.00 45 1009.3
20260506001520 23 113 0.0 6.4 0.00 0.00 0.00 45 1009.3
20260506001008 23 117 0.0 12.9 0.00 0.00 0.00 45 1009.2
20260506000509 24 116 0.0 12.9 0.00 0.00 0.00 45 1009.2
20260506000025 24 120 0.0 12.9 0.00 0.00 0.00 44 1009.1
20260505235511 23 137 0.0 6.4 0.00 0.00 0.00 45 1009.0
20260505235009 24 131 0.0 9.7 0.00 0.00 0.00 45 1008.9
20260505234527 24 83 0.0 9.7 0.00 0.00 0.00 44 1009.0
20260505234004 24 124 0.0 9.7 0.00 0.00 0.00 43 1009.0
20260505233508 25 129 0.0 12.9 0.00 0.00 0.00 43 1008.9
20260505233012 25 125 0.0 12.9 0.00 0.00 0.00 42 1008.9
20260505232504 25 97 0.0 12.9 0.00 0.00 0.00 41 1008.9
20260505232006 25 138 0.0 9.7 0.00 0.00 0.00 39 1008.8
20260505231503 25 117 0.0 19.3 0.00 0.00 0.00 38 1008.8
20260505231002 25 141 1.6 19.3 0.00 0.00 0.00 37 1008.6
20260505230502 26 134 1.6 24.1 0.00 0.00 0.00 36 1008.7
20260505230003 26 136 3.2 27.4 0.00 0.00 0.00 36 1008.7
20260505225504 26 147 1.6 27.4 0.00 0.00 0.00 36 1008.7
20260505225004 26 125 0.0 20.9 0.00 0.00 0.00 36 1008.6
20260505224510 26 110 0.0 29.0 0.00 0.00 0.00 35 1008.6
20260505224004 26 98 3.2 29.0 0.00 0.00 0.00 34 1008.5
20260505223505 26 163 1.6 22.5 0.00 0.00 0.00 34 1008.5
20260505223011 26 107 1.6 29.0 0.00 0.00 0.00 34 1008.5
20260505222503 27 124 6.4 29.0 0.00 0.00 0.00 33 1008.5
20260505222004 27 124 0.0 27.4 0.00 0.00 0.00 35 1008.4
20260505221516 27 122 1.6 27.4 0.00 0.00 0.00 33 1008.4
20260505221006 27 108 1.6 20.9 0.00 0.00 0.00 33 1008.3
20260505220505 27 146 0.0 30.6 0.00 0.00 0.00 33 1008.3
20260505220002 26 134 0.0 32.2 0.00 0.00 0.00 33 1008.2
20260505215505 27 168 6.4 32.2 0.00 0.00 0.00 32 1008.2
20260505215003 27 126 1.6 32.2 0.00 0.00 0.00 32 1008.3
20260505214504 27 140 8.0 32.2 0.00 0.00 0.00 31 1008.3
20260505214004 27 113 1.6 29.0 0.00 0.00 0.00 32 1008.1
20260505213504 27 116 6.4 29.0 0.00 0.00 0.00 30 1008.1
20260505213015 27 128 8.0 30.6 0.00 0.00 0.00 31 1008.1
20260505212504 27 135 3.2 33.8 0.00 0.00 0.00 30 1008.1